Location: Alvediston
(51.0078°N, 2.0364°W)
Time: 18:07:12
(UTC+00:00)

USA 238 - Pass Details

Date: 27 February 2020
Orbit: 1020 x 1192 km, 63.4° (Epoch: 12 March)

Event Time Altitude Azimuth Distance (km) Brightness Sun altitude
Rises 19:56:10 0° 315° (NW) 3,923 7.6 -21.3°
Reaches altitude 10° 19:58:48 10° 315° (NW) 2,987 6.9 -21.7°
Maximum altitude 20:05:58 86° 228° (SW) 1,156 3.8 -22.8°
Enters shadow 20:09:24 35° 142° (SE) 1,771 4.4 -23.3°
